Location: Izdebno
(52.6670°N, 16.2170°E)
Time: 17:07:27
(UTC+02:00)

SR - Pass Details

Date: 01 March 2024
Orbit: 577 x 862 km, 66.7° (Epoch: 21 April)

Event Time Altitude Azimuth Distance (km) Brightness Sun altitude
Rises 13:25:21 0° 188° (S) 3,436 ? 27.8°
Reaches altitude 10° 13:28:01 10° 180° (S) 2,496 ? 27.6°
Maximum altitude 13:33:15 36° 116° (ESE) 1,310 ? 27.3°
Drops below altitude 10° 13:38:20 10° 51° (NE) 2,416 ? 27.0°
Sets 13:40:52 0° 44° (NE) 3,312 ? 26.8°
